GEFSSE_prec_meanprecacc_090.txt.gz
Total_Precipitation_Accumulation
0.00 0.00 0.02 0.01 0.01 0.02 0.04 0.03 0.03 0.04 0.05 0.07 0.06 0.06 0.09 0.10 0.07 0.03 0.01 0.01 0.02 0.03 0.06 0.05 0.06 0.06 0.05 0.05 0.05 0.03 0.02 0.02 0.02 0.03 0.03 0.04 0.04 0.05 0.06 0.08 0.16 0.13 0.09
0.00 0.00 0.03 0.01 0.01 0.02 0.04 0.04 0.04 0.04 0.03 0.03 0.05 0.09 0.13 0.12 0.10 0.05 0.02 0.01 0.02 0.02 0.03 0.05 0.04 0.04 0.05 0.05 0.04 0.02 0.01 0.01 0.01 0.02 0.02 0.02 0.04 0.08 0.09 0.08 0.17 0.09 0.06
0.00 0.00 0.01 0.01 0.01 0.01 0.01 0.03 0.06 0.07 0.04 0.03 0.06 0.10 0.12 0.11 0.10 0.08 0.07 0.03 0.02 0.01 0.01 0.02 0.03 0.04 0.02 0.02 0.02 0.02 0.01 0.01 0.01 0.03 0.11 0.12 0.04 0.06 0.09 0.08 0.07 0.03 0.04
0.00 0.00 0.00 0.01 0.01 0.01 0.01 0.02 0.06 0.07 0.04 0.05 0.12 0.12 0.09 0.10 0.11 0.09 0.09 0.05 0.04 0.02 0.01 0.02 0.02 0.03 0.02 0.01 0.01 0.01 0.01 0.01 0.02 0.07 0.25 0.25 0.09 0.05 0.07 0.08 0.05 0.03 0.04
0.00 0.00 0.00 0.01 0.01 0.01 0.01 0.02 0.05 0.06 0.05 0.05 0.09 0.10 0.07 0.10 0.12 0.10 0.09 0.08 0.09 0.05 0.01 0.02 0.03 0.03 0.02 0.01 0.01 0.01 0.01 0.01 0.03 0.09 0.18 0.19 0.22 0.12 0.10 0.15 0.14 0.12 0.10
0.00 0.00 0.00 0.01 0.01 0.01 0.01 0.02 0.03 0.05 0.04 0.03 0.04 0.07 0.07 0.12 0.17 0.15 0.11 0.12 0.14 0.12 0.06 0.03 0.03 0.03 0.02 0.01 0.01 0.01 0.01 0.02 0.03 0.07 0.12 0.14 0.30 0.26 0.18 0.33 0.42 0.37 0.29
0.00 0.00 0.00 0.01 0.01 0.01 0.01 0.01 0.02 0.03 0.03 0.02 0.02 0.03 0.03 0.07 0.12 0.12 0.11 0.12 0.12 0.11 0.09 0.07 0.05 0.04 0.04 0.04 0.03 0.03 0.04 0.05 0.06 0.08 0.09 0.13 0.27 0.21 0.24 0.49 0.73 0.65 0.51
0.00 0.00 0.01 0.01 0.01 0.01 0.01 0.01 0.02 0.02 0.02 0.02 0.01 0.01 0.02 0.04 0.06 0.07 0.09 0.08 0.07 0.05 0.06 0.07 0.08 0.08 0.07 0.06 0.05 0.05 0.05 0.05 0.06 0.09 0.10 0.14 0.16 0.16 0.34 0.58 0.77 0.75 0.64
0.00 0.00 0.01 0.01 0.01 0.01 0.01 0.01 0.01 0.01 0.01 0.01 0.01 0.01 0.02 0.03 0.03 0.05 0.07 0.08 0.07 0.07 0.08 0.09 0.09 0.08 0.08 0.08 0.06 0.06 0.05 0.05 0.06 0.10 0.14 0.25 0.30 0.33 0.54 0.69 0.76 0.77 0.73
0.00 0.00 0.00 0.01 0.01 0.01 0.01 0.01 0.01 0.01 0.01 0.02 0.02 0.02 0.02 0.02 0.02 0.04 0.07 0.07 0.08 0.09 0.10 0.11 0.14 0.14 0.14 0.12 0.13 0.14 0.11 0.07 0.04 0.04 0.18 0.26 0.35 0.53 0.75 0.83 0.91 0.92 0.91
0.01 0.01 0.00 0.01 0.01 0.01 0.01 0.01 0.01 0.02 0.02 0.02 0.03 0.03 0.03 0.02 0.06 0.11 0.10 0.13 0.17 0.20 0.20 0.21 0.22 0.22 0.22 0.19 0.25 0.34 0.26 0.17 0.12 0.10 0.15 0.24 0.34 0.58 0.83 0.92 1.01 1.09 1.10
0.01 0.01 0.01 0.01 0.01 0.01 0.01 0.02 0.02 0.02 0.04 0.04 0.11 0.14 0.12 0.14 0.15 0.11 0.19 0.30 0.38 0.50 0.52 0.55 0.57 0.46 0.39 0.35 0.74 0.96 0.35 0.32 0.33 0.26 0.27 0.32 0.46 0.73 0.95 0.91 0.95 1.07 1.09
0.03 0.02 0.01 0.02 0.03 0.03 0.03 0.03 0.04 0.04 0.08 0.09 0.10 0.15 0.23 0.22 0.18 0.15 0.22 0.37 0.47 0.61 0.71 1.00 1.12 0.82 0.82 0.88 1.01 0.95 0.44 0.37 0.40 0.41 0.50 0.54 0.63 0.93 1.19 1.00 0.87 0.95 1.04
0.07 0.05 0.05 0.05 0.05 0.05 0.06 0.06 0.06 0.06 0.08 0.08 0.13 0.19 0.29 0.30 0.27 0.29 0.39 0.46 0.58 0.68 0.88 1.03 1.25 1.09 0.97 0.92 0.94 0.86 0.75 0.68 0.57 0.72 0.83 0.65 0.68 0.94 1.21 1.11 0.93 0.86 0.93
0.13 0.13 0.11 0.09 0.09 0.11 0.12 0.13 0.11 0.12 0.14 0.16 0.21 0.28 0.36 0.44 0.47 0.52 0.56 0.68 0.68 0.75 0.92 1.11 1.13 1.26 1.34 1.36 1.17 1.07 1.02 0.93 0.85 1.06 1.17 0.97 0.79 0.85 1.05 1.17 1.10 0.98 0.89
0.33 0.33 0.28 0.22 0.21 0.22 0.23 0.26 0.28 0.28 0.31 0.34 0.42 0.52 0.64 0.77 0.87 0.95 0.94 0.99 0.90 0.95 1.11 1.32 1.38 1.67 1.58 1.49 1.19 1.13 1.06 1.01 0.88 0.95 1.15 1.16 0.85 0.72 0.81 1.00 1.10 1.06 0.97
0.44 0.46 0.52 0.53 0.59 0.70 0.74 0.68 0.62 0.67 0.71 0.73 0.79 0.84 0.92 1.04 1.22 1.36 1.30 1.22 1.25 1.30 1.43 1.58 1.62 1.67 1.47 1.37 1.25 1.23 1.14 1.01 0.84 0.84 0.92 0.99 0.90 0.73 0.72 0.81 0.96 1.01 0.97
0.57 0.72 0.85 0.96 1.15 1.25 1.31 1.32 1.29 1.28 1.23 1.14 1.10 1.15 1.25 1.34 1.49 1.74 1.59 1.47 1.69 1.60 1.72 1.95 1.91 1.84 1.66 1.57 1.40 1.21 1.10 0.95 0.70 0.73 0.74 0.86 0.95 0.79 0.74 0.78 0.79 0.78 0.89
0.94 1.19 1.29 1.42 1.63 1.80 1.88 1.87 1.87 1.86 1.74 1.54 1.48 1.47 1.41 1.45 1.60 1.86 1.70 1.71 1.81 1.95 1.96 1.80 2.11 2.07 1.88 1.79 1.50 1.20 0.93 0.76 0.63 0.61 0.61 0.61 0.74 0.68 0.59 0.63 0.64 0.68 0.85
1.55 1.83 2.04 2.22 2.25 2.12 2.04 2.10 2.14 2.00 1.92 1.83 1.80 1.78 1.67 1.69 1.77 2.03 1.84 1.75 1.89 2.07 1.99 1.94 2.09 2.12 1.92 1.88 1.46 1.04 0.84 0.63 0.57 0.57 0.53 0.51 0.55 0.50 0.46 0.54 0.72 0.64 0.66
2.08 2.32 2.56 2.79 2.93 2.80 2.82 2.87 2.83 2.54 2.43 2.21 1.99 1.77 1.69 1.66 1.80 2.07 1.86 1.95 1.95 1.94 1.92 1.96 2.17 2.16 1.93 1.97 1.68 1.18 0.80 0.56 0.48 0.51 0.56 0.55 0.49 0.54 0.62 0.72 0.78 0.76 0.77
1.88 2.32 2.73 2.69 2.61 2.54 2.75 3.03 3.21 3.18 2.80 2.26 2.04 1.92 1.70 1.63 1.74 1.90 1.93 1.82 1.85 1.89 1.90 1.94 2.08 1.90 1.67 1.81 1.78 1.59 1.03 0.73 0.56 0.50 0.66 0.69 0.64 0.69 0.71 0.70 0.81 0.89 0.92
1.55 1.88 2.01 1.81 1.85 1.84 1.94 2.20 2.39 2.64 2.50 2.20 1.94 1.81 1.71 1.64 1.63 1.70 1.76 1.75 1.76 1.76 1.78 1.91 1.90 1.79 1.60 1.60 1.73 1.81 1.42 1.00 0.74 0.48 0.47 0.56 0.67 0.69 0.68 0.71 0.68 0.74 0.79
1.07 1.05 1.06 1.13 1.23 1.34 1.48 1.72 1.99 2.26 2.23 2.14 2.07 1.82 1.63 1.48 1.41 1.42 1.43 1.46 1.52 1.56 1.66 1.59 1.61 1.74 1.73 1.59 1.66 1.67 1.57 1.46 1.27 0.77 0.51 0.52 0.65 0.69 0.67 0.64 0.65 0.71 0.73
0.90 0.92 0.92 1.02 1.17 1.29 1.40 1.55 1.74 2.09 2.08 1.90 1.76 1.61 1.52 1.44 1.36 1.31 1.32 1.30 1.29 1.33 1.41 1.45 1.62 1.65 1.69 1.63 1.58 1.57 1.62 1.58 1.44 1.17 0.76 0.66 0.65 0.61 0.65 0.68 0.73 0.82 0.91
0.77 0.86 0.92 0.94 1.03 1.11 1.17 1.27 1.32 1.48 1.54 1.45 1.38 1.33 1.26 1.18 1.16 1.20 1.19 1.18 1.18 1.23 1.33 1.36 1.40 1.43 1.46 1.48 1.44 1.42 1.50 1.44 1.36 1.36 1.08 0.94 0.88 0.74 0.77 0.79 0.81 0.85 0.85

GEFSSE_prec_meanprecacc_096.txt.gz
Total_Precipitation_Accumulation
0.00 0.01 0.03 0.01 0.01 0.02 0.04 0.03 0.03 0.04 0.05 0.07 0.06 0.06 0.09 0.10 0.07 0.03 0.01 0.01 0.02 0.03 0.06 0.05 0.06 0.06 0.06 0.06 0.06 0.04 0.02 0.02 0.02 0.03 0.04 0.05 0.05 0.07 0.10 0.11 0.19 0.16 0.14
0.00 0.00 0.03 0.01 0.01 0.02 0.04 0.04 0.04 0.04 0.03 0.03 0.05 0.09 0.13 0.12 0.10 0.05 0.02 0.02 0.02 0.02 0.04 0.05 0.05 0.05 0.05 0.05 0.04 0.03 0.02 0.02 0.02 0.03 0.03 0.04 0.06 0.10 0.12 0.10 0.18 0.13 0.10
0.00 0.00 0.01 0.02 0.01 0.01 0.01 0.03 0.06 0.07 0.04 0.03 0.06 0.10 0.12 0.11 0.10 0.08 0.07 0.03 0.02 0.02 0.02 0.02 0.03 0.04 0.02 0.02 0.02 0.02 0.01 0.01 0.02 0.04 0.12 0.13 0.05 0.08 0.12 0.10 0.08 0.05 0.06
0.00 0.00 0.00 0.01 0.01 0.01 0.01 0.02 0.06 0.07 0.04 0.05 0.12 0.12 0.09 0.10 0.11 0.09 0.09 0.05 0.04 0.02 0.01 0.02 0.02 0.03 0.02 0.01 0.01 0.01 0.01 0.01 0.03 0.08 0.25 0.25 0.10 0.07 0.09 0.09 0.06 0.05 0.06
0.00 0.00 0.00 0.01 0.01 0.01 0.01 0.02 0.05 0.06 0.05 0.05 0.09 0.10 0.07 0.10 0.12 0.10 0.09 0.08 0.09 0.05 0.01 0.03 0.03 0.03 0.02 0.01 0.01 0.01 0.01 0.02 0.04 0.10 0.19 0.19 0.23 0.14 0.11 0.16 0.15 0.13 0.10
0.00 0.00 0.00 0.01 0.01 0.01 0.01 0.02 0.03 0.05 0.04 0.03 0.04 0.07 0.07 0.12 0.17 0.15 0.11 0.13 0.15 0.12 0.06 0.03 0.03 0.04 0.03 0.01 0.01 0.01 0.02 0.04 0.05 0.08 0.12 0.15 0.30 0.28 0.20 0.33 0.43 0.38 0.30
0.00 0.00 0.01 0.01 0.01 0.01 0.01 0.01 0.03 0.03 0.03 0.02 0.02 0.03 0.03 0.07 0.12 0.13 0.11 0.12 0.12 0.11 0.09 0.07 0.05 0.04 0.04 0.04 0.03 0.03 0.04 0.06 0.07 0.09 0.09 0.14 0.27 0.23 0.26 0.50 0.73 0.66 0.51
0.00 0.00 0.01 0.01 0.01 0.01 0.01 0.01 0.02 0.02 0.02 0.02 0.01 0.01 0.02 0.04 0.06 0.08 0.09 0.08 0.07 0.06 0.06 0.08 0.09 0.08 0.07 0.06 0.05 0.05 0.05 0.05 0.06 0.09 0.10 0.14 0.17 0.18 0.37 0.60 0.79 0.75 0.64
0.00 0.00 0.01 0.01 0.01 0.01 0.01 0.01 0.01 0.02 0.02 0.02 0.02 0.02 0.02 0.03 0.04 0.05 0.08 0.08 0.07 0.07 0.08 0.09 0.09 0.08 0.09 0.08 0.06 0.06 0.06 0.06 0.06 0.11 0.14 0.25 0.31 0.35 0.58 0.72 0.78 0.78 0.73
0.00 0.00 0.01 0.01 0.01 0.02 0.01 0.01 0.02 0.02 0.02 0.02 0.02 0.03 0.03 0.03 0.03 0.06 0.08 0.08 0.09 0.10 0.10 0.13 0.15 0.15 0.15 0.13 0.13 0.15 0.13 0.09 0.04 0.05 0.19 0.27 0.36 0.55 0.78 0.86 0.94 0.93 0.92
0.01 0.01 0.01 0.01 0.01 0.01 0.01 0.01 0.02 0.03 0.03 0.03 0.04 0.04 0.04 0.03 0.06 0.12 0.11 0.14 0.18 0.21 0.22 0.24 0.26 0.26 0.25 0.21 0.26 0.36 0.28 0.19 0.12 0.10 0.16 0.24 0.35 0.61 0.88 0.97 1.05 1.11 1.12
0.01 0.01 0.01 0.01 0.01 0.02 0.02 0.03 0.03 0.03 0.05 0.07 0.13 0.15 0.13 0.15 0.16 0.12 0.20 0.32 0.40 0.53 0.57 0.60 0.63 0.52 0.44 0.39 0.76 0.98 0.36 0.33 0.34 0.27 0.27 0.33 0.48 0.77 1.01 0.98 1.01 1.11 1.12
0.04 0.03 0.02 0.03 0.04 0.05 0.06 0.05 0.04 0.04 0.09 0.11 0.13 0.17 0.24 0.24 0.19 0.16 0.24 0.40 0.52 0.68 0.80 1.10 1.24 0.92 0.90 0.95 1.05 0.98 0.47 0.39 0.41 0.42 0.50 0.55 0.65 0.98 1.28 1.10 0.96 1.02 1.10
0.11 0.09 0.08 0.08 0.08 0.09 0.10 0.09 0.08 0.08 0.11 0.11 0.16 0.22 0.32 0.34 0.31 0.33 0.43 0.51 0.64 0.77 1.00 1.17 1.42 1.27 1.13 1.04 1.02 0.92 0.79 0.73 0.60 0.73 0.85 0.67 0.71 0.99 1.31 1.24 1.05 0.97 1.02
0.21 0.21 0.19 0.16 0.16 0.18 0.19 0.19 0.17 0.18 0.20 0.24 0.30 0.36 0.44 0.55 0.64 0.70 0.68 0.78 0.78 0.87 1.06 1.28 1.33 1.50 1.58 1.58 1.35 1.17 1.09 1.00 0.90 1.09 1.20 1.00 0.84 0.91 1.15 1.31 1.23 1.10 1.00
0.42 0.44 0.42 0.37 0.34 0.35 0.37 0.39 0.42 0.47 0.52 0.59 0.69 0.75 0.88 1.00 1.12 1.22 1.20 1.24 1.12 1.14 1.31 1.55 1.62 1.91 1.83 1.73 1.39 1.29 1.18 1.11 0.97 1.04 1.22 1.22 0.93 0.82 0.92 1.14 1.28 1.21 1.11
0.53 0.57 0.69 0.71 0.76 0.92 1.04 1.01 0.94 1.03 1.08 1.12 1.18 1.20 1.24 1.31 1.47 1.64 1.58 1.50 1.52 1.52 1.63 1.78 1.83 1.89 1.69 1.60 1.44 1.40 1.28 1.12 0.94 0.93 1.02 1.08 0.97 0.81 0.83 0.94 1.11 1.16 1.12
0.67 0.83 0.98 1.12 1.37 1.62 1.80 1.79 1.69 1.68 1.64 1.55 1.47 1.45 1.50 1.58 1.73 1.99 1.85 1.72 1.95 1.83 1.93 2.14 2.08 2.00 1.81 1.75 1.59 1.39 1.27 1.09 0.83 0.83 0.84 0.95 1.04 0.86 0.82 0.89 0.93 0.92 1.04
1.06 1.31 1.43 1.62 1.90 2.19 2.31 2.32 2.36 2.31 2.14 1.85 1.71 1.68 1.61 1.64 1.80 2.08 1.92 1.92 2.02 2.18 2.18 1.99 2.25 2.20 2.02 1.96 1.66 1.34 1.08 0.89 0.74 0.73 0.71 0.69 0.81 0.75 0.66 0.72 0.78 0.83 1.03
1.67 1.95 2.18 2.42 2.55 2.45 2.40 2.45 2.42 2.27 2.15 2.02 1.96 1.91 1.81 1.83 1.92 2.20 2.01 1.92 2.05 2.22 2.14 2.10 2.25 2.26 2.04 2.00 1.59 1.14 0.92 0.71 0.65 0.68 0.63 0.60 0.62 0.57 0.53 0.61 0.82 0.76 0.80
2.16 2.41 2.66 2.91 3.08 2.96 3.00 3.05 2.99 2.69 2.58 2.34 2.10 1.86 1.78 1.75 1.88 2.16 1.95 2.06 2.06 2.05 2.05 2.09 2.29 2.26 2.02 2.07 1.80 1.28 0.88 0.63 0.54 0.56 0.63 0.63 0.56 0.60 0.70 0.80 0.87 0.84 0.83
1.94 2.38 2.79 2.77 2.71 2.62 2.80 3.08 3.27 3.24 2.88 2.36 2.14 2.01 1.79 1.70 1.80 1.96 1.99 1.89 1.93 1.98 1.99 2.03 2.15 1.97 1.74 1.90 1.88 1.70 1.11 0.78 0.60 0.53 0.70 0.73 0.68 0.75 0.79 0.77 0.88 0.97 0.98
1.60 1.92 2.06 1.88 1.91 1.88 1.97 2.23 2.41 2.70 2.58 2.29 2.03 1.88 1.78 1.73 1.71 1.76 1.79 1.79 1.79 1.79 1.80 1.94 1.93 1.83 1.65 1.67 1.82 1.91 1.50 1.05 0.79 0.52 0.50 0.59 0.71 0.75 0.74 0.79 0.75 0.80 0.87
1.09 1.06 1.08 1.15 1.25 1.35 1.49 1.74 2.00 2.27 2.26 2.17 2.11 1.85 1.65 1.52 1.47 1.47 1.46 1.48 1.53 1.57 1.66 1.60 1.62 1.75 1.76 1.63 1.71 1.74 1.65 1.53 1.33 0.82 0.54 0.56 0.70 0.74 0.72 0.69 0.72 0.78 0.80
0.90 0.92 0.93 1.03 1.18 1.30 1.41 1.56 1.75 2.09 2.08 1.91 1.77 1.62 1.54 1.45 1.38 1.32 1.33 1.31 1.30 1.34 1.41 1.45 1.62 1.66 1.71 1.65 1.61 1.62 1.70 1.67 1.51 1.22 0.80 0.70 0.70 0.66 0.71 0.73 0.77 0.88 0.97
0.77 0.87 0.93 0.95 1.04 1.11 1.18 1.28 1.33 1.49 1.55 1.45 1.39 1.34 1.27 1.19 1.17 1.21 1.20 1.19 1.19 1.23 1.33 1.36 1.40 1.43 1.47 1.49 1.45 1.45 1.55 1.51 1.43 1.42 1.12 0.98 0.92 0.79 0.82 0.85 0.86 0.90 0.90

GEFSSE_prec_meanprecacc_102.txt.gz
Total_Precipitation_Accumulation
0.00 0.01 0.03 0.02 0.01 0.02 0.04 0.03 0.03 0.04 0.06 0.07 0.07 0.06 0.09 0.10 0.07 0.03 0.01 0.01 0.02 0.03 0.06 0.06 0.08 0.08 0.08 0.08 0.07 0.05 0.04 0.04 0.03 0.04 0.06 0.07 0.07 0.10 0.14 0.17 0.26 0.21 0.17
0.00 0.01 0.03 0.02 0.01 0.02 0.04 0.05 0.05 0.05 0.04 0.04 0.06 0.09 0.13 0.12 0.10 0.05 0.02 0.02 0.02 0.02 0.04 0.05 0.05 0.06 0.06 0.06 0.05 0.03 0.02 0.02 0.03 0.04 0.05 0.05 0.07 0.13 0.16 0.14 0.24 0.18 0.13
0.00 0.00 0.02 0.02 0.01 0.01 0.02 0.03 0.07 0.07 0.04 0.03 0.06 0.10 0.12 0.11 0.10 0.08 0.07 0.03 0.02 0.02 0.02 0.02 0.03 0.04 0.03 0.03 0.02 0.02 0.02 0.02 0.03 0.05 0.14 0.15 0.06 0.11 0.16 0.14 0.13 0.09 0.08
0.00 0.00 0.01 0.01 0.01 0.01 0.01 0.03 0.07 0.07 0.04 0.05 0.12 0.13 0.09 0.10 0.11 0.10 0.09 0.05 0.04 0.02 0.01 0.02 0.02 0.03 0.02 0.01 0.01 0.01 0.01 0.02 0.03 0.08 0.28 0.27 0.11 0.09 0.14 0.13 0.09 0.07 0.08
0.00 0.00 0.00 0.01 0.01 0.01 0.01 0.02 0.05 0.06 0.05 0.05 0.10 0.10 0.07 0.11 0.12 0.10 0.09 0.09 0.10 0.05 0.02 0.03 0.04 0.03 0.02 0.02 0.01 0.01 0.02 0.03 0.05 0.11 0.20 0.22 0.27 0.17 0.15 0.19 0.18 0.15 0.13
0.00 0.00 0.00 0.01 0.01 0.01 0.01 0.02 0.04 0.05 0.04 0.03 0.04 0.07 0.07 0.12 0.17 0.15 0.11 0.13 0.15 0.13 0.07 0.04 0.04 0.04 0.03 0.02 0.01 0.01 0.02 0.04 0.05 0.08 0.13 0.17 0.35 0.31 0.23 0.37 0.46 0.41 0.32
0.00 0.00 0.01 0.01 0.01 0.01 0.01 0.01 0.03 0.04 0.03 0.02 0.02 0.03 0.03 0.07 0.12 0.13 0.11 0.12 0.13 0.12 0.10 0.08 0.05 0.05 0.05 0.04 0.03 0.03 0.05 0.07 0.07 0.09 0.10 0.15 0.31 0.25 0.29 0.54 0.77 0.68 0.53
0.00 0.00 0.01 0.02 0.02 0.01 0.01 0.01 0.02 0.02 0.02 0.02 0.02 0.02 0.02 0.04 0.06 0.08 0.09 0.09 0.08 0.07 0.07 0.08 0.09 0.09 0.07 0.06 0.06 0.06 0.06 0.07 0.07 0.10 0.10 0.15 0.18 0.19 0.39 0.64 0.83 0.78 0.67
0.00 0.00 0.01 0.01 0.02 0.02 0.01 0.01 0.02 0.02 0.02 0.02 0.02 0.02 0.02 0.03 0.04 0.06 0.08 0.09 0.08 0.09 0.10 0.11 0.11 0.09 0.10 0.09 0.07 0.07 0.07 0.08 0.09 0.13 0.15 0.27 0.32 0.36 0.60 0.75 0.81 0.81 0.76
0.01 0.01 0.01 0.01 0.02 0.03 0.02 0.02 0.02 0.03 0.03 0.03 0.03 0.03 0.03 0.04 0.05 0.07 0.10 0.09 0.10 0.12 0.13 0.16 0.18 0.17 0.17 0.15 0.15 0.16 0.14 0.11 0.08 0.09 0.23 0.28 0.37 0.57 0.82 0.90 0.96 0.96 0.95
0.02 0.02 0.01 0.02 0.03 0.03 0.02 0.03 0.05 0.05 0.05 0.05 0.06 0.06 0.06 0.06 0.09 0.16 0.14 0.17 0.20 0.24 0.26 0.28 0.31 0.31 0.30 0.23 0.28 0.37 0.30 0.21 0.16 0.15 0.21 0.28 0.36 0.66 0.94 1.03 1.10 1.15 1.16
0.02 0.02 0.02 0.02 0.03 0.03 0.04 0.06 0.07 0.08 0.10 0.11 0.18 0.20 0.18 0.20 0.20 0.15 0.23 0.35 0.43 0.57 0.62 0.66 0.71 0.61 0.51 0.43 0.81 1.01 0.39 0.35 0.37 0.29 0.31 0.35 0.51 0.85 1.13 1.09 1.08 1.17 1.16
0.05 0.04 0.03 0.04 0.05 0.07 0.09 0.08 0.09 0.11 0.17 0.18 0.19 0.23 0.31 0.32 0.26 0.22 0.30 0.45 0.57 0.74 0.88 1.19 1.34 1.03 1.01 1.04 1.13 1.04 0.50 0.42 0.44 0.44 0.52 0.58 0.69 1.06 1.41 1.28 1.12 1.12 1.16
0.11 0.10 0.09 0.09 0.10 0.12 0.13 0.13 0.13 0.13 0.17 0.19 0.25 0.31 0.42 0.45 0.42 0.44 0.54 0.60 0.72 0.85 1.11 1.31 1.57 1.44 1.30 1.18 1.15 1.02 0.85 0.78 0.64 0.78 0.88 0.69 0.73 1.03 1.39 1.38 1.22 1.12 1.13
0.23 0.24 0.21 0.18 0.18 0.22 0.23 0.23 0.21 0.23 0.27 0.34 0.44 0.51 0.62 0.73 0.84 0.93 0.84 0.90 0.91 0.99 1.18 1.43 1.49 1.68 1.79 1.80 1.54 1.31 1.20 1.09 0.96 1.15 1.24 1.03 0.87 0.94 1.19 1.39 1.35 1.24 1.13
0.45 0.47 0.44 0.39 0.39 0.41 0.45 0.48 0.49 0.56 0.66 0.75 0.86 0.95 1.09 1.25 1.37 1.49 1.45 1.43 1.27 1.28 1.44 1.69 1.79 2.13 2.06 1.96 1.58 1.46 1.32 1.26 1.08 1.12 1.29 1.30 0.99 0.86 0.96 1.20 1.38 1.35 1.24
0.57 0.62 0.77 0.79 0.83 1.00 1.14 1.11 1.05 1.16 1.23 1.28 1.37 1.43 1.48 1.57 1.73 1.86 1.77 1.66 1.66 1.67 1.78 1.93 2.00 2.08 1.86 1.77 1.60 1.56 1.43 1.26 1.07 1.05 1.12 1.18 1.06 0.88 0.88 0.99 1.20 1.28 1.26
0.76 0.91 1.06 1.19 1.44 1.70 1.91 1.92 1.82 1.83 1.82 1.75 1.70 1.70 1.75 1.82 1.98 2.21 2.03 1.88 2.13 2.02 2.12 2.34 2.29 2.19 1.97 1.91 1.77 1.60 1.46 1.25 0.96 0.95 0.96 1.05 1.15 0.94 0.89 0.96 0.99 1.01 1.17
1.11 1.36 1.47 1.66 1.95 2.25 2.40 2.45 2.51 2.45 2.27 2.01 1.92 1.92 1.87 1.91 2.02 2.26 2.08 2.08 2.22 2.40 2.40 2.24 2.51 2.40 2.18 2.09 1.80 1.51 1.25 1.04 0.85 0.82 0.79 0.77 0.91 0.83 0.74 0.79 0.85 0.91 1.14
1.71 1.99 2.22 2.46 2.59 2.51 2.47 2.53 2.49 2.34 2.23 2.12 2.08 2.03 1.96 1.99 2.04 2.32 2.12 2.04 2.19 2.38 2.30 2.27 2.43 2.44 2.20 2.16 1.74 1.29 1.07 0.83 0.76 0.77 0.71 0.68 0.68 0.62 0.58 0.68 0.92 0.83 0.88
2.23 2.48 2.71 2.95 3.13 3.02 3.08 3.12 3.05 2.74 2.62 2.39 2.15 1.91 1.83 1.80 1.95 2.25 2.04 2.15 2.15 2.15 2.16 2.21 2.42 2.42 2.19 2.25 1.97 1.42 1.00 0.73 0.62 0.63 0.70 0.70 0.62 0.65 0.76 0.88 0.96 0.92 0.89
2.08 2.51 2.88 2.82 2.75 2.66 2.85 3.11 3.30 3.27 2.90 2.39 2.16 2.04 1.82 1.75 1.86 2.02 2.05 1.96 2.01 2.06 2.08 2.13 2.30 2.13 1.91 2.08 2.06 1.88 1.26 0.88 0.66 0.57 0.75 0.78 0.73 0.81 0.84 0.84 0.97 1.06 1.05
1.70 2.02 2.16 1.99 1.97 1.92 2.00 2.25 2.43 2.72 2.60 2.30 2.04 1.90 1.80 1.76 1.74 1.79 1.83 1.85 1.87 1.86 1.87 2.01 2.01 1.94 1.78 1.80 1.96 2.06 1.63 1.16 0.87 0.58 0.55 0.64 0.76 0.81 0.80 0.85 0.81 0.88 0.94
1.12 1.11 1.15 1.24 1.30 1.37 1.50 1.75 2.02 2.28 2.27 2.19 2.12 1.87 1.67 1.53 1.49 1.50 1.50 1.53 1.60 1.65 1.73 1.65 1.67 1.82 1.83 1.70 1.79 1.82 1.73 1.61 1.42 0.89 0.60 0.61 0.77 0.81 0.79 0.76 0.79 0.86 0.89
0.92 0.94 0.95 1.05 1.19 1.30 1.42 1.57 1.76 2.10 2.10 1.93 1.79 1.64 1.55 1.47 1.39 1.34 1.36 1.34 1.34 1.38 1.47 1.50 1.66 1.70 1.75 1.71 1.67 1.67 1.75 1.72 1.56 1.28 0.87 0.76 0.77 0.72 0.78 0.80 0.85 0.96 1.07
0.78 0.87 0.93 0.95 1.04 1.12 1.18 1.28 1.34 1.50 1.56 1.46 1.40 1.35 1.28 1.20 1.18 1.22 1.21 1.20 1.22 1.26 1.37 1.41 1.45 1.46 1.51 1.53 1.49 1.49 1.58 1.54 1.47 1.48 1.19 1.05 0.99 0.86 0.91 0.94 0.94 0.99 1.00

GEFSSE_prec_meanprecacc_108.txt.gz
Total_Precipitation_Accumulation
0.00 0.01 0.03 0.02 0.01 0.02 0.04 0.04 0.04 0.05 0.07 0.08 0.07 0.06 0.09 0.10 0.07 0.03 0.01 0.01 0.02 0.04 0.07 0.07 0.09 0.09 0.09 0.09 0.08 0.06 0.06 0.05 0.04 0.05 0.07 0.08 0.09 0.13 0.21 0.30 0.38 0.28 0.19
0.00 0.01 0.03 0.02 0.01 0.02 0.04 0.05 0.06 0.05 0.04 0.05 0.06 0.10 0.14 0.12 0.10 0.05 0.02 0.02 0.02 0.02 0.04 0.06 0.06 0.07 0.08 0.08 0.06 0.04 0.04 0.03 0.03 0.05 0.06 0.06 0.09 0.16 0.22 0.25 0.40 0.27 0.16
0.00 0.00 0.02 0.02 0.01 0.01 0.02 0.04 0.08 0.08 0.06 0.04 0.07 0.10 0.12 0.11 0.11 0.08 0.07 0.03 0.02 0.02 0.02 0.03 0.04 0.06 0.05 0.04 0.03 0.03 0.02 0.02 0.03 0.07 0.23 0.22 0.07 0.13 0.22 0.25 0.24 0.14 0.10
0.00 0.00 0.01 0.01 0.01 0.01 0.01 0.03 0.07 0.08 0.05 0.06 0.13 0.13 0.09 0.11 0.11 0.10 0.09 0.05 0.05 0.03 0.02 0.03 0.03 0.04 0.03 0.01 0.01 0.01 0.01 0.02 0.04 0.16 0.47 0.32 0.14 0.11 0.20 0.21 0.16 0.11 0.11
0.00 0.00 0.00 0.01 0.01 0.01 0.01 0.03 0.06 0.07 0.06 0.07 0.11 0.11 0.08 0.11 0.13 0.11 0.09 0.09 0.10 0.06 0.03 0.04 0.04 0.04 0.03 0.02 0.02 0.02 0.02 0.03 0.07 0.21 0.30 0.28 0.35 0.20 0.19 0.24 0.23 0.18 0.16
0.00 0.00 0.00 0.01 0.01 0.01 0.01 0.02 0.04 0.06 0.06 0.05 0.05 0.08 0.07 0.12 0.18 0.16 0.12 0.13 0.16 0.14 0.07 0.04 0.04 0.04 0.03 0.02 0.02 0.02 0.03 0.05 0.10 0.15 0.17 0.22 0.40 0.32 0.26 0.40 0.49 0.44 0.35
0.00 0.00 0.01 0.01 0.02 0.01 0.01 0.02 0.03 0.05 0.05 0.03 0.03 0.03 0.04 0.08 0.12 0.13 0.12 0.13 0.13 0.12 0.10 0.08 0.06 0.05 0.06 0.05 0.04 0.04 0.05 0.09 0.15 0.12 0.12 0.21 0.37 0.26 0.30 0.57 0.80 0.71 0.56
0.00 0.00 0.01 0.02 0.02 0.01 0.01 0.02 0.03 0.03 0.03 0.03 0.02 0.02 0.02 0.04 0.07 0.08 0.10 0.10 0.09 0.08 0.08 0.09 0.10 0.09 0.08 0.07 0.06 0.06 0.07 0.08 0.11 0.12 0.14 0.22 0.21 0.20 0.40 0.67 0.87 0.81 0.69
0.00 0.00 0.01 0.02 0.02 0.02 0.02 0.02 0.02 0.02 0.02 0.02 0.02 0.02 0.02 0.03 0.04 0.06 0.09 0.10 0.09 0.10 0.12 0.13 0.12 0.10 0.10 0.09 0.07 0.07 0.08 0.09 0.13 0.16 0.20 0.37 0.34 0.37 0.61 0.77 0.84 0.85 0.79
0.01 0.01 0.01 0.02 0.02 0.03 0.02 0.02 0.03 0.03 0.03 0.03 0.03 0.04 0.04 0.04 0.05 0.08 0.10 0.10 0.11 0.12 0.14 0.17 0.20 0.19 0.18 0.15 0.15 0.16 0.15 0.12 0.09 0.10 0.27 0.34 0.38 0.58 0.82 0.91 0.98 0.98 0.98
0.02 0.02 0.02 0.02 0.03 0.04 0.04 0.04 0.05 0.06 0.06 0.06 0.07 0.07 0.07 0.07 0.12 0.19 0.16 0.19 0.22 0.25 0.27 0.30 0.34 0.36 0.32 0.25 0.29 0.39 0.31 0.22 0.16 0.19 0.28 0.34 0.39 0.67 0.96 1.06 1.13 1.18 1.19
0.03 0.03 0.04 0.05 0.05 0.06 0.08 0.12 0.12 0.12 0.15 0.15 0.22 0.24 0.21 0.26 0.26 0.20 0.28 0.40 0.47 0.61 0.65 0.70 0.76 0.64 0.53 0.47 0.87 1.07 0.40 0.36 0.37 0.33 0.48 0.47 0.56 0.89 1.17 1.14 1.11 1.20 1.19
0.07 0.06 0.06 0.09 0.11 0.13 0.17 0.17 0.18 0.21 0.29 0.29 0.30 0.35 0.44 0.43 0.33 0.28 0.38 0.55 0.66 0.82 0.96 1.28 1.43 1.08 1.05 1.11 1.23 1.13 0.55 0.46 0.45 0.46 0.65 0.73 0.78 1.11 1.46 1.34 1.16 1.16 1.20
0.16 0.16 0.14 0.16 0.19 0.24 0.26 0.25 0.25 0.26 0.30 0.34 0.43 0.49 0.60 0.59 0.54 0.56 0.67 0.75 0.89 1.03 1.29 1.48 1.74 1.57 1.40 1.26 1.23 1.08 0.90 0.81 0.66 0.82 0.98 0.80 0.81 1.09 1.44 1.43 1.27 1.17 1.18
0.33 0.32 0.30 0.29 0.32 0.38 0.40 0.38 0.37 0.38 0.40 0.50 0.65 0.73 0.80 0.89 0.99 1.07 1.00 1.09 1.10 1.21 1.42 1.70 1.74 1.91 1.97 1.94 1.65 1.40 1.26 1.15 1.01 1.20 1.36 1.19 0.94 0.98 1.23 1.43 1.41 1.30 1.19
0.52 0.55 0.53 0.50 0.52 0.59 0.62 0.64 0.65 0.71 0.81 0.89 1.04 1.11 1.26 1.43 1.55 1.67 1.63 1.62 1.46 1.48 1.65 1.91 2.06 2.42 2.31 2.17 1.73 1.59 1.44 1.36 1.14 1.18 1.37 1.44 1.07 0.90 0.99 1.23 1.42 1.39 1.30
0.62 0.68 0.84 0.89 0.93 1.11 1.28 1.26 1.20 1.31 1.37 1.43 1.52 1.57 1.65 1.75 1.91 2.05 1.95 1.86 1.87 1.91 2.02 2.15 2.24 2.32 2.09 1.98 1.78 1.72 1.57 1.38 1.16 1.16 1.24 1.32 1.20 0.97 0.92 1.02 1.23 1.31 1.31
0.80 0.95 1.11 1.25 1.51 1.78 2.01 2.04 1.94 1.93 1.92 1.87 1.83 1.85 1.92 2.00 2.16 2.39 2.19 2.05 2.36 2.27 2.36 2.58 2.54 2.43 2.20 2.10 1.94 1.77 1.65 1.41 1.09 1.07 1.09 1.19 1.29 1.06 1.00 1.01 1.03 1.04 1.20
1.14 1.39 1.50 1.70 2.01 2.31 2.47 2.54 2.61 2.54 2.36 2.12 2.03 2.03 2.00 2.04 2.14 2.38 2.20 2.23 2.39 2.59 2.60 2.42 2.76 2.64 2.42 2.31 1.97 1.68 1.43 1.20 1.00 0.94 0.92 0.90 1.04 0.94 0.85 0.91 0.93 0.96 1.20
1.73 2.01 2.25 2.50 2.64 2.57 2.53 2.59 2.54 2.40 2.29 2.20 2.16 2.10 2.03 2.07 2.12 2.41 2.23 2.18 2.34 2.53 2.46 2.44 2.62 2.63 2.38 2.35 1.93 1.48 1.25 0.98 0.90 0.90 0.82 0.81 0.81 0.72 0.67 0.80 1.08 0.90 0.93
2.25 2.50 2.74 2.98 3.16 3.06 3.12 3.16 3.09 2.80 2.67 2.44 2.19 1.95 1.87 1.85 2.01 2.33 2.12 2.27 2.28 2.28 2.29 2.35 2.57 2.55 2.31 2.41 2.15 1.62 1.18 0.88 0.76 0.76 0.82 0.80 0.70 0.74 0.89 1.03 1.12 1.07 0.98
2.11 2.54 2.92 2.85 2.78 2.69 2.87 3.13 3.32 3.29 2.93 2.43 2.20 2.07 1.85 1.78 1.90 2.07 2.11 2.03 2.09 2.14 2.17 2.23 2.41 2.24 2.01 2.24 2.24 2.05 1.41 1.01 0.75 0.64 0.85 0.87 0.81 0.90 0.95 0.98 1.11 1.23 1.20
1.72 2.05 2.20 2.04 2.01 1.94 2.02 2.27 2.45 2.73 2.61 2.32 2.07 1.93 1.82 1.78 1.76 1.82 1.87 1.88 1.91 1.90 1.92 2.08 2.09 2.02 1.87 1.91 2.11 2.23 1.78 1.29 0.99 0.69 0.65 0.72 0.86 0.92 0.91 0.98 0.96 1.04 1.09
1.13 1.12 1.19 1.28 1.34 1.41 1.53 1.78 2.05 2.30 2.29 2.21 2.14 1.89 1.68 1.54 1.50 1.51 1.52 1.56 1.63 1.68 1.78 1.70 1.74 1.90 1.91 1.78 1.89 1.94 1.84 1.74 1.54 1.01 0.73 0.72 0.90 0.93 0.91 0.87 0.92 1.04 1.04
0.93 0.95 0.96 1.06 1.20 1.31 1.42 1.58 1.78 2.12 2.11 1.94 1.80 1.65 1.56 1.47 1.40 1.34 1.37 1.38 1.37 1.41 1.50 1.55 1.73 1.77 1.83 1.78 1.75 1.76 1.84 1.81 1.65 1.38 0.97 0.88 0.90 0.83 0.87 0.89 0.95 1.09 1.23
0.78 0.88 0.93 0.96 1.05 1.12 1.19 1.29 1.35 1.51 1.57 1.47 1.41 1.36 1.29 1.21 1.19 1.22 1.22 1.23 1.24 1.29 1.40 1.44 1.49 1.51 1.56 1.60 1.58 1.59 1.67 1.61 1.53 1.56 1.26 1.13 1.08 0.94 0.97 1.01 1.01 1.09 1.12

GEFSSE_prec_meanprecacc_114.txt.gz
Total_Precipitation_Accumulation
0.01 0.01 0.04 0.02 0.01 0.02 0.04 0.04 0.04 0.05 0.07 0.09 0.07 0.06 0.09 0.10 0.08 0.04 0.02 0.02 0.03 0.04 0.08 0.08 0.10 0.10 0.11 0.11 0.10 0.08 0.07 0.08 0.09 0.10 0.11 0.12 0.14 0.21 0.33 0.39 0.42 0.33 0.23
0.00 0.01 0.04 0.02 0.01 0.02 0.04 0.05 0.06 0.06 0.05 0.05 0.07 0.10 0.14 0.12 0.10 0.05 0.02 0.02 0.03 0.03 0.05 0.06 0.07 0.08 0.09 0.08 0.06 0.05 0.05 0.06 0.08 0.10 0.10 0.08 0.12 0.23 0.30 0.32 0.43 0.30 0.20
0.00 0.00 0.02 0.02 0.01 0.01 0.02 0.04 0.08 0.09 0.06 0.05 0.07 0.11 0.12 0.11 0.11 0.09 0.08 0.03 0.02 0.03 0.03 0.04 0.05 0.06 0.05 0.04 0.03 0.03 0.03 0.04 0.07 0.12 0.27 0.23 0.10 0.20 0.30 0.32 0.27 0.16 0.13
0.00 0.00 0.01 0.02 0.01 0.01 0.02 0.03 0.08 0.09 0.06 0.07 0.13 0.14 0.09 0.11 0.12 0.10 0.09 0.05 0.05 0.03 0.03 0.04 0.04 0.04 0.03 0.02 0.01 0.02 0.02 0.04 0.10 0.24 0.51 0.35 0.18 0.17 0.27 0.27 0.18 0.12 0.12
0.00 0.00 0.01 0.01 0.02 0.01 0.02 0.03 0.06 0.07 0.06 0.07 0.11 0.11 0.08 0.11 0.13 0.11 0.09 0.09 0.10 0.06 0.03 0.04 0.04 0.04 0.03 0.02 0.02 0.02 0.03 0.05 0.12 0.29 0.37 0.32 0.37 0.24 0.23 0.26 0.24 0.19 0.18
0.00 0.00 0.01 0.02 0.02 0.02 0.02 0.03 0.05 0.07 0.07 0.05 0.06 0.08 0.08 0.13 0.18 0.16 0.12 0.13 0.16 0.14 0.08 0.04 0.04 0.04 0.03 0.02 0.02 0.02 0.04 0.08 0.14 0.21 0.23 0.26 0.43 0.35 0.28 0.41 0.50 0.45 0.36
0.00 0.00 0.01 0.02 0.02 0.02 0.02 0.03 0.04 0.05 0.05 0.04 0.03 0.04 0.04 0.08 0.13 0.13 0.12 0.13 0.14 0.13 0.11 0.09 0.06 0.05 0.06 0.05 0.04 0.04 0.07 0.13 0.19 0.19 0.20 0.26 0.40 0.28 0.32 0.58 0.81 0.72 0.57
0.00 0.00 0.01 0.02 0.02 0.02 0.02 0.02 0.03 0.04 0.04 0.03 0.03 0.03 0.03 0.05 0.07 0.09 0.10 0.10 0.09 0.08 0.08 0.09 0.10 0.09 0.08 0.07 0.07 0.07 0.08 0.10 0.15 0.19 0.23 0.30 0.25 0.21 0.41 0.68 0.88 0.82 0.70
0.01 0.01 0.01 0.02 0.03 0.02 0.02 0.02 0.03 0.03 0.03 0.03 0.03 0.03 0.03 0.04 0.05 0.06 0.09 0.10 0.10 0.10 0.12 0.13 0.12 0.10 0.10 0.09 0.07 0.08 0.09 0.11 0.17 0.24 0.30 0.44 0.40 0.40 0.62 0.78 0.85 0.86 0.79
0.04 0.01 0.01 0.02 0.03 0.03 0.03 0.03 0.03 0.04 0.04 0.04 0.04 0.04 0.04 0.05 0.05 0.08 0.11 0.11 0.12 0.14 0.15 0.18 0.21 0.20 0.18 0.16 0.15 0.16 0.16 0.14 0.12 0.18 0.38 0.42 0.46 0.63 0.85 0.92 0.99 0.99 0.98
0.16 0.08 0.05 0.04 0.04 0.05 0.05 0.05 0.06 0.07 0.07 0.07 0.08 0.08 0.07 0.08 0.13 0.20 0.18 0.22 0.25 0.28 0.30 0.32 0.36 0.37 0.33 0.26 0.30 0.39 0.31 0.22 0.18 0.25 0.40 0.46 0.50 0.74 1.00 1.08 1.13 1.18 1.19
0.35 0.26 0.17 0.15 0.10 0.09 0.12 0.16 0.15 0.15 0.18 0.17 0.25 0.27 0.23 0.28 0.29 0.23 0.33 0.48 0.55 0.67 0.71 0.75 0.79 0.66 0.55 0.48 0.88 1.09 0.41 0.37 0.39 0.38 0.61 0.65 0.70 1.00 1.24 1.18 1.13 1.20 1.19
0.45 0.29 0.20 0.21 0.21 0.23 0.27 0.25 0.25 0.28 0.36 0.37 0.37 0.43 0.53 0.51 0.40 0.36 0.47 0.67 0.77 0.92 1.04 1.37 1.49 1.12 1.09 1.13 1.25 1.16 0.58 0.48 0.48 0.51 0.80 0.93 0.97 1.28 1.58 1.40 1.20 1.18 1.20
0.38 0.31 0.30 0.31 0.33 0.38 0.40 0.38 0.39 0.41 0.48 0.52 0.61 0.71 0.85 0.75 0.65 0.65 0.77 0.89 1.03 1.17 1.43 1.61 1.85 1.67 1.47 1.32 1.29 1.16 0.97 0.87 0.73 0.90 1.12 0.98 1.05 1.31 1.58 1.52 1.33 1.22 1.20
0.49 0.47 0.46 0.48 0.55 0.55 0.53 0.52 0.52 0.53 0.57 0.71 0.86 0.98 1.07 1.09 1.13 1.19 1.11 1.20 1.23 1.35 1.56 1.85 1.94 2.09 2.11 2.06 1.76 1.54 1.45 1.31 1.12 1.31 1.54 1.41 1.17 1.19 1.38 1.55 1.49 1.37 1.25
0.76 0.74 0.72 0.69 0.68 0.70 0.71 0.73 0.76 0.82 0.92 1.01 1.17 1.25 1.42 1.60 1.68 1.78 1.73 1.73 1.58 1.60 1.77 2.04 2.19 2.59 2.49 2.35 1.89 1.72 1.58 1.52 1.27 1.30 1.53 1.64 1.29 1.13 1.18 1.39 1.53 1.47 1.37
0.96 0.96 1.06 1.06 1.06 1.19 1.33 1.32 1.26 1.36 1.46 1.53 1.63 1.70 1.82 1.90 2.01 2.13 2.03 1.94 1.97 2.01 2.10 2.24 2.35 2.46 2.24 2.15 1.96 1.84 1.66 1.47 1.25 1.24 1.37 1.49 1.40 1.18 1.11 1.19 1.37 1.41 1.39
1.03 1.16 1.31 1.40 1.61 1.84 2.06 2.10 2.00 1.99 1.99 1.96 1.93 2.00 2.09 2.15 2.26 2.46 2.24 2.12 2.42 2.33 2.43 2.65 2.62 2.55 2.33 2.24 2.08 1.87 1.72 1.47 1.14 1.13 1.17 1.30 1.45 1.23 1.13 1.14 1.16 1.15 1.30
1.28 1.53 1.64 1.82 2.10 2.38 2.52 2.58 2.66 2.60 2.44 2.21 2.17 2.19 2.12 2.14 2.22 2.44 2.24 2.25 2.42 2.62 2.64 2.47 2.83 2.75 2.55 2.42 2.06 1.75 1.50 1.27 1.06 0.99 0.99 1.01 1.16 1.04 0.94 1.01 1.04 1.06 1.30
1.78 2.09 2.35 2.57 2.71 2.61 2.57 2.63 2.59 2.44 2.33 2.25 2.24 2.17 2.07 2.10 2.16 2.45 2.26 2.20 2.36 2.55 2.48 2.47 2.68 2.70 2.47 2.45 2.02 1.54 1.32 1.05 0.96 0.94 0.87 0.87 0.87 0.78 0.74 0.87 1.15 0.97 1.01
2.29 2.55 2.80 3.05 3.22 3.12 3.17 3.20 3.13 2.83 2.70 2.47 2.22 1.97 1.89 1.87 2.04 2.36 2.15 2.29 2.30 2.30 2.30 2.37 2.60 2.61 2.37 2.49 2.22 1.67 1.23 0.92 0.80 0.79 0.85 0.85 0.76 0.81 0.96 1.11 1.21 1.16 1.05
2.16 2.58 2.94 2.89 2.82 2.74 2.91 3.15 3.33 3.30 2.94 2.43 2.21 2.08 1.86 1.79 1.91 2.08 2.12 2.04 2.10 2.16 2.19 2.25 2.44 2.28 2.05 2.30 2.30 2.11 1.45 1.04 0.78 0.66 0.88 0.92 0.86 0.98 1.04 1.08 1.23 1.35 1.32
1.75 2.08 2.23 2.07 2.04 1.97 2.04 2.29 2.46 2.74 2.61 2.32 2.07 1.93 1.83 1.79 1.77 1.82 1.88 1.90 1.93 1.91 1.94 2.09 2.10 2.04 1.88 1.94 2.15 2.28 1.82 1.32 1.02 0.71 0.67 0.76 0.92 0.99 1.00 1.12 1.11 1.18 1.21
1.16 1.15 1.21 1.30 1.38 1.45 1.55 1.79 2.05 2.31 2.29 2.21 2.15 1.89 1.69 1.55 1.51 1.52 1.53 1.57 1.64 1.69 1.79 1.71 1.75 1.92 1.93 1.79 1.91 1.96 1.87 1.77 1.56 1.02 0.74 0.75 0.96 1.00 1.01 1.01 1.09 1.22 1.22
0.95 0.97 0.97 1.07 1.22 1.34 1.43 1.58 1.78 2.12 2.12 1.94 1.80 1.65 1.56 1.48 1.41 1.35 1.38 1.39 1.38 1.42 1.52 1.56 1.74 1.79 1.85 1.80 1.77 1.77 1.86 1.84 1.68 1.39 0.98 0.91 0.93 0.87 0.93 0.99 1.10 1.28 1.40
0.79 0.88 0.94 0.96 1.05 1.12 1.19 1.29 1.35 1.51 1.57 1.47 1.41 1.36 1.29 1.21 1.19 1.22 1.23 1.23 1.25 1.29 1.41 1.45 1.50 1.52 1.57 1.61 1.59 1.60 1.70 1.63 1.55 1.58 1.28 1.15 1.11 0.97 1.01 1.06 1.09 1.20 1.27

GEFSSE_prec_meanprecacc_120.txt.gz
Total_Precipitation_Accumulation
0.02 0.02 0.05 0.03 0.01 0.02 0.05 0.04 0.05 0.06 0.07 0.09 0.08 0.07 0.09 0.11 0.08 0.04 0.02 0.02 0.03 0.05 0.08 0.09 0.12 0.12 0.12 0.12 0.11 0.09 0.08 0.09 0.11 0.13 0.14 0.16 0.19 0.27 0.40 0.45 0.46 0.35 0.27
0.01 0.02 0.05 0.04 0.02 0.02 0.05 0.06 0.06 0.06 0.06 0.06 0.07 0.10 0.14 0.12 0.11 0.05 0.03 0.03 0.03 0.04 0.06 0.07 0.08 0.08 0.10 0.10 0.08 0.06 0.06 0.07 0.10 0.14 0.14 0.12 0.19 0.31 0.38 0.36 0.46 0.32 0.23
0.00 0.01 0.03 0.04 0.03 0.02 0.03 0.04 0.08 0.09 0.07 0.05 0.08 0.11 0.13 0.12 0.11 0.09 0.08 0.04 0.04 0.04 0.04 0.04 0.05 0.06 0.05 0.05 0.04 0.04 0.04 0.05 0.08 0.15 0.30 0.25 0.15 0.29 0.36 0.35 0.30 0.20 0.16
0.01 0.00 0.01 0.02 0.02 0.02 0.02 0.04 0.08 0.09 0.06 0.07 0.13 0.14 0.10 0.11 0.12 0.11 0.10 0.06 0.06 0.04 0.04 0.04 0.04 0.05 0.04 0.02 0.02 0.03 0.04 0.06 0.12 0.25 0.52 0.37 0.21 0.24 0.34 0.30 0.20 0.15 0.15
0.01 0.01 0.01 0.02 0.02 0.02 0.02 0.04 0.07 0.08 0.07 0.07 0.11 0.11 0.08 0.12 0.13 0.11 0.10 0.09 0.11 0.07 0.03 0.04 0.05 0.04 0.03 0.02 0.03 0.03 0.04 0.08 0.15 0.30 0.37 0.33 0.39 0.29 0.28 0.28 0.27 0.23 0.21
0.01 0.01 0.02 0.03 0.03 0.03 0.03 0.04 0.06 0.08 0.08 0.06 0.06 0.09 0.08 0.13 0.18 0.16 0.12 0.14 0.17 0.14 0.08 0.05 0.05 0.05 0.04 0.02 0.02 0.03 0.06 0.12 0.16 0.21 0.24 0.27 0.44 0.39 0.31 0.43 0.52 0.47 0.39
0.01 0.01 0.02 0.03 0.04 0.03 0.04 0.04 0.06 0.07 0.07 0.05 0.04 0.05 0.05 0.09 0.13 0.14 0.13 0.14 0.14 0.13 0.11 0.09 0.07 0.06 0.06 0.06 0.04 0.05 0.09 0.16 0.20 0.19 0.20 0.27 0.42 0.32 0.35 0.60 0.83 0.74 0.58
0.02 0.02 0.02 0.04 0.04 0.04 0.04 0.04 0.05 0.05 0.05 0.04 0.04 0.04 0.04 0.06 0.08 0.10 0.11 0.10 0.10 0.09 0.09 0.10 0.11 0.10 0.08 0.07 0.07 0.08 0.10 0.12 0.16 0.21 0.24 0.30 0.27 0.25 0.44 0.70 0.89 0.83 0.70
0.03 0.02 0.03 0.04 0.04 0.04 0.04 0.04 0.04 0.04 0.04 0.04 0.04 0.04 0.04 0.05 0.06 0.08 0.10 0.11 0.10 0.11 0.13 0.14 0.12 0.11 0.11 0.09 0.07 0.08 0.10 0.13 0.18 0.26 0.31 0.45 0.43 0.44 0.65 0.80 0.86 0.87 0.80
0.08 0.04 0.04 0.04 0.05 0.05 0.05 0.05 0.05 0.05 0.05 0.06 0.06 0.06 0.06 0.06 0.07 0.10 0.13 0.13 0.14 0.16 0.17 0.19 0.22 0.21 0.19 0.16 0.16 0.18 0.18 0.15 0.13 0.20 0.40 0.44 0.49 0.66 0.87 0.94 1.00 0.99 0.99
0.20 0.12 0.09 0.07 0.07 0.07 0.07 0.07 0.09 0.10 0.10 0.10 0.11 0.11 0.10 0.09 0.14 0.22 0.21 0.26 0.29 0.33 0.34 0.36 0.40 0.40 0.36 0.28 0.31 0.41 0.33 0.23 0.20 0.27 0.42 0.48 0.54 0.80 1.04 1.10 1.15 1.19 1.20
0.40 0.30 0.22 0.19 0.14 0.14 0.15 0.19 0.18 0.18 0.21 0.21 0.29 0.32 0.28 0.31 0.32 0.26 0.37 0.54 0.62 0.76 0.80 0.83 0.87 0.74 0.60 0.51 0.90 1.11 0.42 0.38 0.41 0.40 0.62 0.68 0.77 1.08 1.31 1.22 1.16 1.23 1.21
0.55 0.35 0.25 0.28 0.29 0.30 0.32 0.30 0.30 0.32 0.40 0.43 0.45 0.52 0.61 0.56 0.45 0.40 0.51 0.72 0.87 1.05 1.16 1.48 1.59 1.20 1.15 1.18 1.28 1.18 0.59 0.49 0.49 0.52 0.81 0.96 1.04 1.38 1.67 1.47 1.26 1.23 1.24
0.55 0.40 0.39 0.42 0.43 0.47 0.48 0.46 0.48 0.49 0.54 0.59 0.69 0.81 0.95 0.83 0.72 0.73 0.86 0.99 1.18 1.30 1.57 1.74 1.96 1.77 1.56 1.39 1.34 1.20 0.99 0.89 0.74 0.91 1.14 1.01 1.12 1.42 1.71 1.63 1.42 1.29 1.25
0.69 0.63 0.61 0.63 0.69 0.66 0.64 0.63 0.63 0.62 0.63 0.79 0.95 1.07 1.17 1.19 1.23 1.30 1.23 1.35 1.41 1.54 1.74 2.02 2.06 2.20 2.21 2.14 1.82 1.59 1.50 1.35 1.14 1.33 1.56 1.44 1.24 1.30 1.54 1.71 1.61 1.45 1.31
0.99 0.94 0.90 0.86 0.82 0.81 0.81 0.83 0.86 0.90 1.01 1.11 1.27 1.35 1.52 1.70 1.78 1.90 1.87 1.87 1.71 1.73 1.91 2.18 2.32 2.70 2.58 2.44 1.97 1.78 1.64 1.58 1.31 1.32 1.55 1.67 1.35 1.22 1.32 1.58 1.73 1.63 1.47
1.16 1.11 1.22 1.24 1.21 1.31 1.44 1.43 1.38 1.48 1.56 1.63 1.74 1.81 1.93 2.01 2.12 2.25 2.15 2.06 2.06 2.08 2.17 2.33 2.46 2.58 2.36 2.26 2.06 1.93 1.73 1.54 1.30 1.29 1.40 1.52 1.44 1.25 1.22 1.34 1.57 1.62 1.57
1.20 1.29 1.43 1.56 1.78 1.96 2.16 2.20 2.11 2.09 2.07 2.05 2.02 2.10 2.17 2.23 2.36 2.56 2.33 2.17 2.47 2.37 2.47 2.72 2.71 2.66 2.44 2.33 2.16 1.96 1.78 1.52 1.20 1.18 1.21 1.33 1.48 1.27 1.19 1.27 1.36 1.39 1.53
1.42 1.67 1.79 2.01 2.26 2.50 2.62 2.67 2.75 2.69 2.52 2.29 2.24 2.26 2.18 2.20 2.29 2.50 2.28 2.28 2.45 2.66 2.69 2.52 2.88 2.81 2.62 2.49 2.12 1.80 1.54 1.31 1.10 1.02 1.02 1.04 1.19 1.07 0.99 1.08 1.20 1.25 1.50
1.94 2.25 2.52 2.74 2.84 2.74 2.70 2.74 2.68 2.52 2.40 2.30 2.29 2.21 2.09 2.13 2.20 2.48 2.29 2.23 2.38 2.58 2.52 2.51 2.73 2.77 2.53 2.51 2.07 1.59 1.37 1.09 1.00 0.98 0.90 0.90 0.91 0.82 0.79 0.94 1.23 1.09 1.17
2.46 2.70 2.95 3.21 3.37 3.25 3.29 3.29 3.20 2.89 2.75 2.50 2.24 1.98 1.90 1.89 2.06 2.37 2.16 2.31 2.32 2.32 2.33 2.40 2.63 2.64 2.42 2.53 2.26 1.71 1.25 0.94 0.83 0.83 0.88 0.87 0.79 0.85 1.01 1.16 1.28 1.24 1.13
2.30 2.72 3.05 3.00 2.93 2.82 3.00 3.22 3.39 3.34 2.97 2.46 2.22 2.09 1.87 1.80 1.92 2.09 2.12 2.04 2.10 2.16 2.19 2.26 2.45 2.29 2.07 2.31 2.31 2.13 1.46 1.06 0.80 0.69 0.92 0.95 0.90 1.02 1.09 1.12 1.28 1.41 1.39
1.83 2.18 2.29 2.15 2.12 2.03 2.10 2.34 2.52 2.78 2.63 2.34 2.08 1.94 1.83 1.79 1.77 1.82 1.88 1.90 1.93 1.92 1.94 2.09 2.11 2.04 1.89 1.94 2.15 2.29 1.83 1.32 1.02 0.72 0.69 0.78 0.95 1.03 1.04 1.16 1.16 1.23 1.28
1.20 1.18 1.24 1.34 1.42 1.49 1.59 1.82 2.08 2.33 2.29 2.21 2.15 1.89 1.69 1.55 1.51 1.52 1.53 1.58 1.65 1.69 1.79 1.71 1.75 1.92 1.93 1.79 1.91 1.97 1.88 1.77 1.57 1.02 0.74 0.76 0.97 1.02 1.03 1.03 1.12 1.25 1.27
0.98 0.99 0.98 1.09 1.25 1.37 1.45 1.59 1.79 2.13 2.12 1.94 1.80 1.65 1.56 1.48 1.41 1.35 1.38 1.39 1.38 1.42 1.52 1.56 1.75 1.80 1.85 1.80 1.77 1.78 1.86 1.84 1.68 1.40 0.98 0.91 0.94 0.88 0.94 1.01 1.11 1.30 1.43
0.81 0.90 0.95 0.97 1.06 1.13 1.19 1.29 1.35 1.51 1.57 1.47 1.41 1.36 1.29 1.21 1.19 1.22 1.23 1.23 1.25 1.29 1.41 1.46 1.50 1.52 1.57 1.61 1.59 1.60 1.70 1.64 1.56 1.59 1.29 1.16 1.13 0.98 1.02 1.06 1.10 1.22 1.29

GEFSSE_prec_meanprecacc_126.txt.gz
Total_Precipitation_Accumulation
0.02 0.03 0.06 0.04 0.02 0.04 0.07 0.06 0.06 0.06 0.08 0.10 0.09 0.07 0.10 0.11 0.09 0.05 0.03 0.03 0.04 0.06 0.09 0.10 0.13 0.13 0.13 0.14 0.13 0.11 0.10 0.11 0.14 0.16 0.18 0.19 0.23 0.32 0.46 0.52 0.50 0.38 0.29
0.01 0.02 0.06 0.05 0.03 0.03 0.06 0.07 0.07 0.08 0.07 0.07 0.08 0.11 0.14 0.13 0.11 0.06 0.04 0.04 0.04 0.05 0.07 0.08 0.08 0.09 0.11 0.11 0.09 0.07 0.07 0.09 0.12 0.17 0.17 0.14 0.23 0.36 0.44 0.41 0.51 0.36 0.25
0.01 0.01 0.03 0.05 0.04 0.03 0.03 0.05 0.09 0.10 0.08 0.06 0.09 0.12 0.13 0.12 0.12 0.10 0.09 0.05 0.04 0.04 0.05 0.05 0.06 0.07 0.06 0.05 0.05 0.05 0.05 0.07 0.10 0.18 0.34 0.30 0.18 0.34 0.40 0.38 0.33 0.23 0.18
0.01 0.01 0.01 0.03 0.03 0.03 0.03 0.04 0.09 0.10 0.07 0.07 0.14 0.14 0.10 0.12 0.13 0.11 0.11 0.07 0.07 0.05 0.04 0.05 0.05 0.05 0.04 0.02 0.02 0.04 0.04 0.07 0.13 0.28 0.55 0.40 0.25 0.27 0.37 0.32 0.22 0.18 0.18
0.01 0.01 0.01 0.03 0.03 0.03 0.03 0.04 0.07 0.09 0.07 0.08 0.11 0.12 0.09 0.12 0.14 0.12 0.10 0.10 0.12 0.08 0.04 0.05 0.05 0.04 0.04 0.03 0.03 0.04 0.05 0.09 0.16 0.32 0.39 0.37 0.46 0.33 0.32 0.32 0.30 0.26 0.25
0.01 0.01 0.02 0.04 0.04 0.04 0.04 0.05 0.06 0.08 0.08 0.06 0.07 0.09 0.08 0.14 0.19 0.17 0.13 0.15 0.17 0.15 0.09 0.05 0.05 0.05 0.04 0.03 0.03 0.04 0.06 0.13 0.18 0.22 0.25 0.31 0.49 0.43 0.35 0.46 0.56 0.51 0.42
0.01 0.02 0.03 0.04 0.05 0.05 0.05 0.05 0.06 0.07 0.07 0.05 0.05 0.05 0.05 0.09 0.14 0.15 0.13 0.15 0.15 0.14 0.12 0.10 0.07 0.06 0.06 0.06 0.05 0.07 0.11 0.18 0.22 0.21 0.23 0.32 0.46 0.34 0.40 0.63 0.86 0.78 0.61
0.02 0.02 0.03 0.06 0.06 0.06 0.06 0.06 0.06 0.06 0.06 0.05 0.04 0.04 0.05 0.06 0.09 0.10 0.12 0.11 0.11 0.09 0.10 0.11 0.11 0.10 0.09 0.08 0.08 0.10 0.13 0.14 0.17 0.22 0.26 0.34 0.30 0.27 0.48 0.74 0.92 0.86 0.72
0.04 0.03 0.05 0.06 0.06 0.06 0.06 0.06 0.06 0.06 0.05 0.05 0.05 0.05 0.06 0.06 0.07 0.09 0.12 0.12 0.11 0.12 0.14 0.14 0.13 0.11 0.11 0.10 0.09 0.11 0.14 0.16 0.21 0.29 0.33 0.48 0.45 0.47 0.70 0.86 0.90 0.89 0.83
0.10 0.07 0.08 0.08 0.08 0.08 0.07 0.08 0.08 0.08 0.08 0.09 0.08 0.08 0.08 0.09 0.10 0.13 0.15 0.15 0.15 0.18 0.19 0.21 0.22 0.21 0.20 0.17 0.17 0.20 0.21 0.19 0.16 0.22 0.43 0.46 0.51 0.70 0.92 1.00 1.05 1.02 1.02
0.25 0.17 0.14 0.12 0.12 0.12 0.11 0.10 0.13 0.13 0.13 0.13 0.14 0.13 0.13 0.13 0.19 0.27 0.24 0.29 0.32 0.36 0.38 0.41 0.43 0.43 0.38 0.30 0.33 0.43 0.36 0.27 0.23 0.29 0.45 0.50 0.57 0.85 1.10 1.16 1.21 1.24 1.23
0.45 0.35 0.26 0.24 0.19 0.18 0.19 0.25 0.25 0.24 0.27 0.27 0.35 0.37 0.33 0.37 0.38 0.31 0.42 0.60 0.68 0.82 0.85 0.89 0.94 0.80 0.65 0.54 0.92 1.13 0.44 0.40 0.44 0.43 0.65 0.69 0.81 1.15 1.41 1.31 1.23 1.29 1.27
0.63 0.41 0.31 0.34 0.37 0.37 0.40 0.37 0.36 0.39 0.49 0.51 0.52 0.58 0.68 0.63 0.51 0.48 0.59 0.81 0.96 1.13 1.24 1.57 1.68 1.30 1.25 1.25 1.34 1.21 0.62 0.50 0.51 0.54 0.83 0.98 1.08 1.45 1.78 1.58 1.37 1.32 1.31
0.69 0.51 0.47 0.49 0.51 0.54 0.55 0.53 0.55 0.56 0.63 0.67 0.77 0.87 1.01 0.90 0.79 0.80 0.96 1.10 1.29 1.42 1.68 1.86 2.08 1.88 1.67 1.48 1.41 1.24 1.02 0.91 0.76 0.93 1.17 1.04 1.18 1.50 1.81 1.75 1.53 1.39 1.33
0.86 0.72 0.69 0.70 0.76 0.72 0.70 0.69 0.70 0.69 0.71 0.87 1.02 1.13 1.23 1.27 1.32 1.38 1.32 1.47 1.55 1.69 1.87 2.16 2.21 2.33 2.34 2.25 1.91 1.65 1.54 1.38 1.17 1.35 1.58 1.46 1.28 1.36 1.63 1.86 1.75 1.55 1.42
1.12 1.03 0.97 0.92 0.87 0.87 0.88 0.90 0.94 0.98 1.08 1.19 1.36 1.44 1.62 1.79 1.87 2.01 1.99 2.00 1.86 1.86 2.03 2.31 2.47 2.84 2.72 2.56 2.07 1.87 1.70 1.63 1.34 1.35 1.58 1.71 1.39 1.27 1.39 1.72 1.89 1.78 1.61
1.32 1.27 1.32 1.30 1.28 1.39 1.53 1.52 1.47 1.57 1.66 1.73 1.83 1.89 2.01 2.09 2.20 2.34 2.26 2.17 2.16 2.17 2.28 2.43 2.56 2.69 2.46 2.37 2.18 2.04 1.80 1.60 1.35 1.33 1.44 1.57 1.48 1.28 1.27 1.43 1.70 1.80 1.74
1.35 1.45 1.58 1.69 1.88 2.06 2.26 2.30 2.19 2.17 2.16 2.15 2.11 2.16 2.22 2.29 2.42 2.63 2.41 2.26 2.53 2.43 2.53 2.78 2.78 2.75 2.55 2.45 2.29 2.07 1.87 1.61 1.26 1.24 1.26 1.37 1.53 1.30 1.23 1.34 1.48 1.54 1.69
1.52 1.78 1.94 2.16 2.39 2.58 2.69 2.75 2.81 2.74 2.58 2.36 2.31 2.32 2.22 2.24 2.34 2.56 2.34 2.34 2.51 2.72 2.74 2.57 2.93 2.87 2.69 2.56 2.19 1.89 1.63 1.38 1.16 1.07 1.07 1.10 1.25 1.13 1.05 1.15 1.29 1.38 1.65
2.03 2.33 2.63 2.88 2.97 2.84 2.78 2.80 2.72 2.57 2.44 2.36 2.34 2.25 2.13 2.17 2.23 2.52 2.33 2.28 2.43 2.63 2.57 2.57 2.78 2.81 2.57 2.55 2.11 1.64 1.42 1.14 1.05 1.02 0.94 0.95 0.97 0.86 0.82 0.99 1.33 1.18 1.27
2.54 2.78 3.04 3.36 3.51 3.34 3.35 3.33 3.25 2.92 2.78 2.53 2.27 2.00 1.92 1.91 2.08 2.39 2.18 2.34 2.35 2.35 2.36 2.42 2.66 2.67 2.44 2.56 2.30 1.75 1.29 0.97 0.86 0.85 0.91 0.90 0.82 0.88 1.05 1.21 1.36 1.35 1.25
2.35 2.77 3.11 3.10 3.04 2.90 3.05 3.26 3.42 3.37 2.99 2.47 2.23 2.10 1.88 1.81 1.93 2.10 2.14 2.06 2.13 2.18 2.22 2.28 2.47 2.30 2.08 2.33 2.34 2.16 1.50 1.09 0.82 0.71 0.94 0.97 0.92 1.04 1.11 1.15 1.34 1.51 1.50
1.88 2.22 2.34 2.20 2.16 2.08 2.14 2.36 2.54 2.79 2.64 2.35 2.09 1.95 1.84 1.80 1.78 1.83 1.89 1.91 1.94 1.92 1.95 2.11 2.12 2.06 1.90 1.96 2.17 2.31 1.86 1.35 1.05 0.74 0.70 0.80 0.97 1.05 1.06 1.19 1.19 1.29 1.35
1.23 1.22 1.28 1.39 1.45 1.52 1.62 1.84 2.09 2.34 2.30 2.22 2.16 1.90 1.70 1.56 1.51 1.52 1.53 1.58 1.65 1.69 1.79 1.72 1.76 1.93 1.94 1.81 1.92 1.98 1.90 1.80 1.60 1.04 0.76 0.77 0.98 1.03 1.04 1.05 1.14 1.28 1.32
1.02 1.03 1.02 1.13 1.28 1.40 1.47 1.61 1.81 2.15 2.13 1.95 1.81 1.66 1.57 1.48 1.41 1.35 1.38 1.39 1.38 1.42 1.52 1.57 1.75 1.80 1.85 1.81 1.77 1.78 1.87 1.86 1.70 1.42 1.01 0.93 0.96 0.90 0.96 1.02 1.13 1.31 1.46
0.84 0.93 0.98 1.00 1.09 1.15 1.21 1.31 1.36 1.52 1.58 1.48 1.41 1.36 1.29 1.21 1.19 1.23 1.23 1.23 1.25 1.29 1.41 1.46 1.50 1.53 1.58 1.62 1.59 1.61 1.70 1.65 1.57 1.60 1.30 1.17 1.14 0.99 1.03 1.08 1.11 1.23 1.31